Flag for Germany Weather past 2 weeks in Kehl, Baden-Württemberg, Germany

Now
66 °F

Clear.


Feels Like: 66 °F
Forecast: 60 / 77 °F
Wind: 2 mph from North

Location: Strasbourg Airport

Current Time: Sep 18, 2014 at 12:43:46 AM

Latest Report: Sep 18, 2014 at 12:00 AM


Visibility: N/A

Pressure: 29.86 "Hg

Humidity: 88%

Dew point: 63 °F

Location of KehlLocation

Historic Weather in Kehl — Graph

°F

Kehl temperature yesterday

Maximum temperature yesterday: 77 °F (at 4:00 PM)
Minimum temperature yesterday: 55 °F (at 3:00 AM)
Average temperature yesterday: 64 °F

Past Weeks' High & Low Weather Summary

 TemperatureHumidityPressure
High79 °F (Sep 6, 1:30 PM)100% (Sep 5, 1:30 AM)30.15 "Hg (Sep 5, 1:30 AM)
Low50 °F (Sep 11, 5:30 AM)46% (Sep 10, 5:00 PM)29.83 "Hg (Sep 17, 4:00 PM)
Average63 °F81%30.01 "Hg
* Reported Sep 2 11:00 PM — Sep 17 11:30 PM, Kehl, Weather by CustomWeather, © 2014

Note: Actual official high and low records may vary slightly from our data, if they occured in-between our weather recording intervals... More about our weather records

Advertising

Kehl weather history for previous 24 hours

 ConditionsComfort  
Time TempWeatherWind HumidityBarometerVisibility
11:30 PM
Sep 17
64 °FClear.3 mph94%29.86 "HgN/A
11:00 PM66 °FClear.3 mph88%29.86 "HgN/A
10:30 PM66 °FClear.3 mph88%29.86 "HgN/A
10:00 PM66 °FClear.3 mph88%29.86 "HgN/A
9:30 PM68 °FClear.5 mph83%29.86 "HgN/A
9:00 PM68 °FClear.3 mph83%29.83 "HgN/A
8:30 PM68 °FPartly sunny.2 mph83%29.83 "HgN/A
8:00 PM70 °FLight rain. Clear.2 mph78%29.83 "HgN/A
7:30 PM70 °FClear.3 mph78%29.83 "HgN/A
7:00 PM73 °FClear.2 mph69%29.83 "HgN/A
6:30 PM75 °FClear.3 mph61%29.83 "HgN/A
6:00 PM77 °FClear.5 mph57%29.83 "HgN/A
5:30 PM77 °FClear.5 mph57%29.83 "HgN/A
5:00 PM75 °FScattered clouds.6 mph61%29.83 "HgN/A
4:30 PM77 °FClear.3 mph54%29.86 "HgN/A
4:00 PM77 °FClear.5 mph54%29.83 "HgN/A
3:30 PM75 °FClear.5 mph61%29.86 "HgN/A
3:00 PM75 °FClear.5 mph61%29.86 "HgN/A
2:30 PM73 °FClear.3 mph65%29.86 "HgN/A
2:00 PM72 °FClear.3 mph69%29.89 "HgN/A
1:30 PM70 °FClear.3 mph73%29.89 "HgN/A
1:00 PM66 °FPartly sunny.2 mph83%29.89 "Hg5 mi
12:30 PM63 °FLow clouds.1 mph94%29.92 "Hg4 mi
12:00 PM61 °FFog.No wind94%29.92 "Hg2 mi
11:30 AM61 °FDense fog.1 mph94%29.92 "Hg1 mi
11:00 AM59 °FFog.1 mph100%29.92 "Hg1 mi
10:30 AM59 °FFog.3 mph94%29.92 "Hg0 mi
10:00 AM59 °FFog.2 mph94%29.92 "Hg0 mi
9:30 AM59 °FFog.2 mph94%29.92 "Hg0 mi
9:00 AM59 °FFog.2 mph94%29.92 "Hg0 mi
8:30 AM57 °FFog.1 mph100%29.92 "Hg0 mi
8:00 AM57 °FFog.3 mph100%29.92 "Hg0 mi
7:30 AM57 °FFog.3 mph100%29.92 "Hg1 mi
7:00 AM57 °FFog.3 mph94%29.92 "Hg2 mi
6:30 AM55 °FFog.2 mph94%29.92 "Hg2 mi
6:00 AM55 °FFog.2 mph100%29.92 "Hg3 mi
5:30 AM55 °FFog.2 mph94%29.92 "Hg3 mi
5:00 AM55 °FClear.2 mph94%29.92 "Hg4 mi
4:30 AM55 °FClear.2 mph94%29.92 "Hg6 mi
4:00 AM55 °FClear.1 mph94%29.92 "Hg5 mi
3:30 AM55 °FClear.2 mph94%29.92 "Hg6 mi
3:00 AM55 °FClear.2 mph100%29.92 "HgN/A
2:30 AM57 °FClear.2 mph94%29.92 "HgN/A
2:00 AM57 °FClear.2 mph94%29.92 "HgN/A
1:30 AM59 °FClear.3 mph94%29.92 "HgN/A
1:00 AM59 °FClear.3 mph94%29.92 "HgN/A
12:30 AM59 °FClear.5 mph94%29.92 "HgN/A
12:00 AM59 °FClear.3 mph94%29.92 "HgN/A
Weather by CustomWeather, © 2014

See weather overviewHow to use our weather pages